Year,Month,Day,Hour,Minute,Value (Times are PST for temperature in C)
2017,07,24,00,00,14.70
2017,07,24,00,01,14.70
2017,07,24,00,02,14.70
2017,07,24,00,03,14.60
2017,07,24,00,04,14.50
2017,07,24,00,05,14.50
2017,07,24,00,06,14.40
2017,07,24,00,07,14.40
2017,07,24,00,08,14.40
2017,07,24,00,09,14.40
2017,07,24,00,10,14.30
2017,07,24,00,11,14.30
2017,07,24,00,12,14.30
2017,07,24,00,13,14.30
2017,07,24,00,14,14.30
2017,07,24,00,15,14.30
2017,07,24,00,16,14.30
2017,07,24,00,17,14.20
2017,07,24,00,18,14.20
2017,07,24,00,19,14.20
2017,07,24,00,20,14.20
2017,07,24,00,21,14.10
2017,07,24,00,22,14.10
2017,07,24,00,23,14.10
2017,07,24,00,24,14.00
2017,07,24,00,25,14.00
2017,07,24,00,26,14.00
2017,07,24,00,27,14.00
2017,07,24,00,28,14.00
2017,07,24,00,29,14.00
2017,07,24,00,30,14.00
2017,07,24,00,31,14.00
2017,07,24,00,32,14.00
2017,07,24,00,33,14.00
2017,07,24,00,34,14.00
2017,07,24,00,35,13.90
2017,07,24,00,36,13.90
2017,07,24,00,37,13.90
2017,07,24,00,38,13.90
2017,07,24,00,39,13.90
2017,07,24,00,40,13.90
2017,07,24,00,41,13.90
2017,07,24,00,42,13.90
2017,07,24,00,43,13.80
2017,07,24,00,44,13.80
2017,07,24,00,45,13.80
2017,07,24,00,46,13.80
2017,07,24,00,47,13.80
2017,07,24,00,48,13.80
2017,07,24,00,49,13.80
2017,07,24,00,50,13.80
2017,07,24,00,51,13.80
2017,07,24,00,52,13.80
2017,07,24,00,53,13.80
2017,07,24,00,54,13.80
2017,07,24,00,55,13.80
2017,07,24,00,56,13.80
2017,07,24,00,57,13.80
2017,07,24,00,58,13.70
2017,07,24,00,59,13.70
2017,07,24,01,00,13.70
2017,07,24,01,01,13.70
2017,07,24,01,02,13.70
2017,07,24,01,03,13.60
2017,07,24,01,04,13.60
2017,07,24,01,05,13.60
2017,07,24,01,06,13.60
2017,07,24,01,07,13.60
2017,07,24,01,08,13.60
2017,07,24,01,09,13.50
2017,07,24,01,10,13.50
2017,07,24,01,11,13.50
2017,07,24,01,12,13.40
2017,07,24,01,13,13.40
2017,07,24,01,14,13.40
2017,07,24,01,15,13.40
2017,07,24,01,16,13.40
2017,07,24,01,17,13.40
2017,07,24,01,18,13.40
2017,07,24,01,19,13.40
2017,07,24,01,20,13.30
2017,07,24,01,21,13.30
2017,07,24,01,22,13.30
2017,07,24,01,23,13.20
2017,07,24,01,24,13.20
2017,07,24,01,25,13.20
2017,07,24,01,26,13.10
2017,07,24,01,27,13.10
2017,07,24,01,28,13.00
2017,07,24,01,29,12.90
2017,07,24,01,30,12.90
2017,07,24,01,31,12.90
2017,07,24,01,32,12.90
2017,07,24,01,33,12.90
2017,07,24,01,34,12.90
2017,07,24,01,35,12.90
2017,07,24,01,36,12.90
2017,07,24,01,37,12.90
2017,07,24,01,38,12.90
2017,07,24,01,39,12.80
2017,07,24,01,40,12.80
2017,07,24,01,41,12.80
2017,07,24,01,42,12.80
2017,07,24,01,43,12.80
2017,07,24,01,44,12.80
2017,07,24,01,45,12.80
2017,07,24,01,46,12.80
2017,07,24,01,47,12.80
2017,07,24,01,48,12.80
2017,07,24,01,49,12.80
2017,07,24,01,50,12.80
2017,07,24,01,51,12.70
2017,07,24,01,52,12.70
2017,07,24,01,53,12.70
2017,07,24,01,54,12.70
2017,07,24,01,55,12.70
2017,07,24,01,56,12.70
2017,07,24,01,57,12.70
2017,07,24,01,58,12.70
2017,07,24,01,59,12.70
2017,07,24,02,00,12.70
2017,07,24,02,01,12.60
2017,07,24,02,02,12.50
2017,07,24,02,03,12.50
2017,07,24,02,04,12.50
2017,07,24,02,05,12.50
2017,07,24,02,06,12.50
2017,07,24,02,07,12.50
2017,07,24,02,08,12.50
2017,07,24,02,09,12.50
2017,07,24,02,10,12.50
2017,07,24,02,11,12.50
2017,07,24,02,12,12.40
2017,07,24,02,13,12.40
2017,07,24,02,14,12.40
2017,07,24,02,15,12.40
2017,07,24,02,16,12.40
2017,07,24,02,17,12.50
2017,07,24,02,18,12.50
2017,07,24,02,19,12.50
2017,07,24,02,20,12.50
2017,07,24,02,21,12.50
2017,07,24,02,22,12.50
2017,07,24,02,23,12.60
2017,07,24,02,24,12.60
2017,07,24,02,25,12.50
2017,07,24,02,26,12.50
2017,07,24,02,27,12.50
2017,07,24,02,28,12.40
2017,07,24,02,29,12.40
2017,07,24,02,30,12.40
2017,07,24,02,31,12.40
2017,07,24,02,32,12.30
2017,07,24,02,33,12.30
2017,07,24,02,34,12.20
2017,07,24,02,35,12.20
2017,07,24,02,36,12.20
2017,07,24,02,37,12.20
2017,07,24,02,38,12.20
2017,07,24,02,39,12.20
2017,07,24,02,40,12.10
2017,07,24,02,41,12.10
2017,07,24,02,42,12.10
2017,07,24,02,43,12.10
2017,07,24,02,44,12.10
2017,07,24,02,45,12.10
2017,07,24,02,46,12.00
2017,07,24,02,47,12.00
2017,07,24,02,48,12.00
2017,07,24,02,49,12.00
2017,07,24,02,50,11.90
2017,07,24,02,51,11.90
2017,07,24,02,52,11.80
2017,07,24,02,53,11.80
2017,07,24,02,54,11.70
2017,07,24,02,55,11.70
2017,07,24,02,56,11.60
2017,07,24,02,57,11.60
2017,07,24,02,58,11.60
2017,07,24,02,59,11.70
2017,07,24,03,00,11.70
2017,07,24,03,01,11.70
2017,07,24,03,02,11.70
2017,07,24,03,03,11.70
2017,07,24,03,04,11.70
2017,07,24,03,05,11.70
2017,07,24,03,06,11.60
2017,07,24,03,07,11.60
2017,07,24,03,08,11.60
2017,07,24,03,09,11.60
2017,07,24,03,10,11.60
2017,07,24,03,11,11.60
2017,07,24,03,12,11.60
2017,07,24,03,13,11.60
2017,07,24,03,14,11.60
2017,07,24,03,15,11.60
2017,07,24,03,16,11.60
2017,07,24,03,17,11.60
2017,07,24,03,18,11.50
2017,07,24,03,19,11.50
2017,07,24,03,20,11.50
2017,07,24,03,21,11.50
2017,07,24,03,22,11.50
2017,07,24,03,23,11.50
2017,07,24,03,24,11.50
2017,07,24,03,25,11.60
2017,07,24,03,26,11.60
2017,07,24,03,27,11.60
2017,07,24,03,28,11.60
2017,07,24,03,29,11.60
2017,07,24,03,30,11.70
2017,07,24,03,31,11.70
2017,07,24,03,32,11.70
2017,07,24,03,33,11.70
2017,07,24,03,34,11.70
2017,07,24,03,35,11.70
2017,07,24,03,36,11.70
2017,07,24,03,37,11.70
2017,07,24,03,38,11.70
2017,07,24,03,39,11.70
2017,07,24,03,40,11.70
2017,07,24,03,41,11.70
2017,07,24,03,42,11.60
2017,07,24,03,43,11.60
2017,07,24,03,44,11.60
2017,07,24,03,45,11.60
2017,07,24,03,46,11.60
2017,07,24,03,47,11.60
2017,07,24,03,48,11.60
2017,07,24,03,49,11.60
2017,07,24,03,50,11.60
2017,07,24,03,51,11.60
2017,07,24,03,52,11.60
2017,07,24,03,53,11.60
2017,07,24,03,54,11.50
2017,07,24,03,55,11.50
2017,07,24,03,56,11.50
2017,07,24,03,57,11.50
2017,07,24,03,58,11.50
2017,07,24,03,59,11.40
2017,07,24,04,00,11.40
2017,07,24,04,01,11.40
2017,07,24,04,02,11.40
2017,07,24,04,03,11.40
2017,07,24,04,04,11.40
2017,07,24,04,05,11.40
2017,07,24,04,06,11.40
2017,07,24,04,07,11.40
2017,07,24,04,08,11.50
2017,07,24,04,09,11.50
2017,07,24,04,10,11.50
2017,07,24,04,11,11.60
2017,07,24,04,12,11.60
2017,07,24,04,13,11.60
2017,07,24,04,14,11.60
2017,07,24,04,15,11.60
2017,07,24,04,16,11.60
2017,07,24,04,17,11.60
2017,07,24,04,18,11.60
2017,07,24,04,19,11.50
2017,07,24,04,20,11.50
2017,07,24,04,21,11.40
2017,07,24,04,22,11.40
2017,07,24,04,23,11.30
2017,07,24,04,24,11.30
2017,07,24,04,25,11.20
2017,07,24,04,26,11.20
2017,07,24,04,27,11.10
2017,07,24,04,28,11.10
2017,07,24,04,29,11.00
2017,07,24,04,30,10.90
2017,07,24,04,31,10.90
2017,07,24,04,32,10.90
2017,07,24,04,33,10.90
2017,07,24,04,34,10.90
2017,07,24,04,35,10.90
2017,07,24,04,36,10.80
2017,07,24,04,37,10.80
2017,07,24,04,38,10.80
2017,07,24,04,39,10.80
2017,07,24,04,40,10.80
2017,07,24,04,41,10.80
2017,07,24,04,42,10.70
2017,07,24,04,43,10.70
2017,07,24,04,44,10.70
2017,07,24,04,45,10.70
2017,07,24,04,46,10.70
2017,07,24,04,47,10.70
2017,07,24,04,48,10.70
2017,07,24,04,49,10.70
2017,07,24,04,50,10.70
2017,07,24,04,51,10.80
2017,07,24,04,52,10.80
2017,07,24,04,53,10.80
2017,07,24,04,54,10.90
2017,07,24,04,55,10.90
2017,07,24,04,56,10.90
2017,07,24,04,57,10.90
2017,07,24,04,58,10.90
2017,07,24,04,59,10.90
2017,07,24,05,00,11.00
2017,07,24,05,01,11.00
2017,07,24,05,02,11.00
2017,07,24,05,03,11.10
2017,07,24,05,04,11.10
2017,07,24,05,05,11.10
2017,07,24,05,06,11.10
2017,07,24,05,07,11.20
2017,07,24,05,08,11.20
2017,07,24,05,09,11.20
2017,07,24,05,10,11.20
2017,07,24,05,11,11.10
2017,07,24,05,12,11.10
2017,07,24,05,13,11.10
2017,07,24,05,14,11.20
2017,07,24,05,15,11.20
2017,07,24,05,16,11.20
2017,07,24,05,17,11.20
2017,07,24,05,18,11.20
2017,07,24,05,19,11.20
2017,07,24,05,20,11.20
2017,07,24,05,21,11.10
2017,07,24,05,22,11.10
2017,07,24,05,23,11.10
2017,07,24,05,24,11.00
2017,07,24,05,25,10.90
2017,07,24,05,26,10.90
2017,07,24,05,27,10.90
2017,07,24,05,28,10.80
2017,07,24,05,29,10.80
2017,07,24,05,30,10.80
2017,07,24,05,31,10.80
2017,07,24,05,32,10.80
2017,07,24,05,33,10.80
2017,07,24,05,34,10.80
2017,07,24,05,35,10.80
2017,07,24,05,36,10.80
2017,07,24,05,37,10.80
2017,07,24,05,38,10.80
2017,07,24,05,39,10.80
2017,07,24,05,40,10.70
2017,07,24,05,41,10.70
2017,07,24,05,42,10.70
2017,07,24,05,43,10.70
2017,07,24,05,44,10.70
2017,07,24,05,45,10.70
2017,07,24,05,46,10.70
2017,07,24,05,47,10.70
2017,07,24,05,48,10.70
2017,07,24,05,49,10.70
2017,07,24,05,50,10.70
2017,07,24,05,51,10.60
2017,07,24,05,52,10.60
2017,07,24,05,53,10.60
2017,07,24,05,54,10.60
2017,07,24,05,55,10.50
2017,07,24,05,56,10.50
2017,07,24,05,57,10.40
2017,07,24,05,58,10.40
2017,07,24,05,59,10.40
2017,07,24,06,00,10.40
2017,07,24,06,01,10.40
2017,07,24,06,02,10.40
2017,07,24,06,03,10.40
2017,07,24,06,04,10.40
2017,07,24,06,05,10.40
2017,07,24,06,06,10.40
2017,07,24,06,07,10.40
2017,07,24,06,08,10.40
2017,07,24,06,09,10.40
2017,07,24,06,10,10.50
2017,07,24,06,11,10.50
2017,07,24,06,12,10.50
2017,07,24,06,13,10.50
2017,07,24,06,14,10.50
2017,07,24,06,15,10.60
2017,07,24,06,16,10.60
2017,07,24,06,17,10.60
2017,07,24,06,18,10.60
2017,07,24,06,19,10.70
2017,07,24,06,20,10.70
2017,07,24,06,21,10.70
2017,07,24,06,22,10.70
2017,07,24,06,23,10.70
2017,07,24,06,24,10.80
2017,07,24,06,25,10.80
2017,07,24,06,26,10.90
2017,07,24,06,27,10.90
2017,07,24,06,28,11.00
2017,07,24,06,29,11.10
2017,07,24,06,30,11.20
2017,07,24,06,31,11.30
2017,07,24,06,32,11.40
2017,07,24,06,33,11.50
2017,07,24,06,34,11.60
2017,07,24,06,35,11.70
2017,07,24,06,36,11.80
2017,07,24,06,37,11.80
2017,07,24,06,38,11.80
2017,07,24,06,39,11.80
2017,07,24,06,40,11.80
2017,07,24,06,41,11.80
2017,07,24,06,42,11.80
2017,07,24,06,43,11.80
2017,07,24,06,44,11.80
2017,07,24,06,45,11.80
2017,07,24,06,46,11.80
2017,07,24,06,47,11.90
2017,07,24,06,48,11.90
2017,07,24,06,49,11.90
2017,07,24,06,50,12.00
2017,07,24,06,51,12.10
2017,07,24,06,52,12.10
2017,07,24,06,53,12.10
2017,07,24,06,54,12.20
2017,07,24,06,55,12.20
2017,07,24,06,56,12.30
2017,07,24,06,57,12.30
2017,07,24,06,58,12.30
2017,07,24,06,59,12.40
2017,07,24,07,00,12.40
2017,07,24,07,01,12.40
2017,07,24,07,02,12.50
2017,07,24,07,03,12.50
2017,07,24,07,04,12.50
2017,07,24,07,05,12.60
2017,07,24,07,06,12.60
2017,07,24,07,07,12.70
2017,07,24,07,08,12.70
2017,07,24,07,09,12.80
2017,07,24,07,10,12.80
2017,07,24,07,11,12.90
2017,07,24,07,12,12.90
2017,07,24,07,13,13.00
2017,07,24,07,14,13.10
2017,07,24,07,15,13.10
2017,07,24,07,16,13.20
2017,07,24,07,17,13.20
2017,07,24,07,18,13.20
2017,07,24,07,19,13.30
2017,07,24,07,20,13.30
2017,07,24,07,21,13.40
2017,07,24,07,22,13.50
2017,07,24,07,23,13.60
2017,07,24,07,24,13.70
2017,07,24,07,25,13.80
2017,07,24,07,26,13.90
2017,07,24,07,27,14.00
2017,07,24,07,28,14.10
2017,07,24,07,29,14.20
2017,07,24,07,30,14.30
2017,07,24,07,31,14.40
2017,07,24,07,32,14.50
2017,07,24,07,33,14.60
2017,07,24,07,34,14.70
2017,07,24,07,35,14.80
2017,07,24,07,36,15.00
2017,07,24,07,37,15.20
2017,07,24,07,38,15.30
2017,07,24,07,39,15.40
2017,07,24,07,40,15.50
2017,07,24,07,41,15.50
2017,07,24,07,42,15.60
2017,07,24,07,43,15.60
2017,07,24,07,44,15.70
2017,07,24,07,45,15.70
2017,07,24,07,46,15.80
2017,07,24,07,47,15.90
2017,07,24,07,48,15.90
2017,07,24,07,49,16.00
2017,07,24,07,50,16.00
2017,07,24,07,51,16.10
2017,07,24,07,52,16.10
2017,07,24,07,53,16.10
2017,07,24,07,54,16.20
2017,07,24,07,55,16.20
2017,07,24,07,56,16.20
2017,07,24,07,57,16.30
2017,07,24,07,58,16.30
2017,07,24,07,59,16.30
2017,07,24,08,00,16.30
2017,07,24,08,01,16.40
2017,07,24,08,02,16.40
2017,07,24,08,03,16.40
2017,07,24,08,04,16.40
2017,07,24,08,05,16.40
2017,07,24,08,06,16.50
2017,07,24,08,07,16.50
2017,07,24,08,08,16.50
2017,07,24,08,09,16.60
2017,07,24,08,10,16.60
2017,07,24,08,11,16.70
2017,07,24,08,12,16.80
2017,07,24,08,13,16.90
2017,07,24,08,14,17.00
2017,07,24,08,15,17.10
2017,07,24,08,16,17.20
2017,07,24,08,17,17.30
2017,07,24,08,18,17.40
2017,07,24,08,19,17.50
2017,07,24,08,20,17.60
2017,07,24,08,21,17.70
2017,07,24,08,22,17.70
2017,07,24,08,23,17.80
2017,07,24,08,24,17.80
2017,07,24,08,25,17.90
2017,07,24,08,26,18.00
2017,07,24,08,27,18.00
2017,07,24,08,28,18.10
2017,07,24,08,29,18.20
2017,07,24,08,30,18.20
2017,07,24,08,31,18.30
2017,07,24,08,32,18.30
2017,07,24,08,33,18.30
2017,07,24,08,34,18.30
2017,07,24,08,35,18.30
2017,07,24,08,36,18.40
2017,07,24,08,37,18.40
2017,07,24,08,38,18.40
2017,07,24,08,39,18.40
2017,07,24,08,40,18.50
2017,07,24,08,41,18.50
2017,07,24,08,42,18.60
2017,07,24,08,43,18.70
2017,07,24,08,44,18.80
2017,07,24,08,45,18.90
2017,07,24,08,46,18.90
2017,07,24,08,47,19.00
2017,07,24,08,48,19.10
2017,07,24,08,49,19.20
2017,07,24,08,50,19.20
2017,07,24,08,51,19.30
2017,07,24,08,52,19.40
2017,07,24,08,53,19.50
2017,07,24,08,54,19.50
2017,07,24,08,55,19.60
2017,07,24,08,56,19.60
2017,07,24,08,57,19.60
2017,07,24,08,58,19.60
2017,07,24,08,59,19.70
2017,07,24,09,00,19.70
2017,07,24,09,01,19.70
2017,07,24,09,02,19.70
2017,07,24,09,03,19.80
2017,07,24,09,04,19.80
2017,07,24,09,05,19.80
2017,07,24,09,06,19.90
2017,07,24,09,07,19.90
2017,07,24,09,08,20.00
2017,07,24,09,09,20.00
2017,07,24,09,10,20.00
2017,07,24,09,11,20.00
2017,07,24,09,12,20.00
2017,07,24,09,13,20.00
2017,07,24,09,14,20.00
2017,07,24,09,15,20.00
2017,07,24,09,16,20.00
2017,07,24,09,17,20.00
2017,07,24,09,18,20.00
2017,07,24,09,19,20.10
2017,07,24,09,20,20.00
2017,07,24,09,21,20.00
2017,07,24,09,22,19.90
2017,07,24,09,23,19.80
2017,07,24,09,24,19.80
2017,07,24,09,25,19.80
2017,07,24,09,26,19.80
2017,07,24,09,27,19.80
2017,07,24,09,28,19.80
2017,07,24,09,29,19.80
2017,07,24,09,30,19.80
2017,07,24,09,31,19.80
2017,07,24,09,32,19.80
2017,07,24,09,33,19.80
2017,07,24,09,34,19.80
2017,07,24,09,35,19.90
2017,07,24,09,36,19.90
2017,07,24,09,37,19.90
2017,07,24,09,38,19.90
2017,07,24,09,39,19.80
2017,07,24,09,40,19.80
2017,07,24,09,41,19.80
2017,07,24,09,42,19.80
2017,07,24,09,43,19.80
2017,07,24,09,44,19.80
2017,07,24,09,45,19.90
2017,07,24,09,46,20.00
2017,07,24,09,47,20.00
2017,07,24,09,48,20.10
2017,07,24,09,49,20.20
2017,07,24,09,50,20.30
2017,07,24,09,51,20.30
2017,07,24,09,52,20.30
2017,07,24,09,53,20.30
2017,07,24,09,54,20.30
2017,07,24,09,55,20.30
2017,07,24,09,56,20.20
2017,07,24,09,57,20.20
2017,07,24,09,58,20.20
2017,07,24,09,59,20.30
2017,07,24,10,00,20.30
2017,07,24,10,01,20.30
2017,07,24,10,02,20.20
2017,07,24,10,03,20.20
2017,07,24,10,04,20.20
2017,07,24,10,05,20.20
2017,07,24,10,06,20.20
2017,07,24,10,07,20.20
2017,07,24,10,08,20.30
2017,07,24,10,09,20.20
2017,07,24,10,10,20.10
2017,07,24,10,11,19.90
2017,07,24,10,12,19.80
2017,07,24,10,13,19.70
2017,07,24,10,14,19.70
2017,07,24,10,15,19.60
2017,07,24,10,16,19.60
2017,07,24,10,17,19.60
2017,07,24,10,18,19.70
2017,07,24,10,19,19.70
2017,07,24,10,20,19.80
2017,07,24,10,21,19.80
2017,07,24,10,22,19.70
2017,07,24,10,23,19.70
2017,07,24,10,24,19.70
2017,07,24,10,25,19.70
2017,07,24,10,26,19.80
2017,07,24,10,27,19.80
2017,07,24,10,28,19.70
2017,07,24,10,29,19.70
2017,07,24,10,30,19.70
2017,07,24,10,31,19.70
2017,07,24,10,32,19.70
2017,07,24,10,33,19.70
2017,07,24,10,34,19.70
2017,07,24,10,35,19.80
2017,07,24,10,36,19.80
2017,07,24,10,37,19.70
2017,07,24,10,38,19.70
2017,07,24,10,39,19.60
2017,07,24,10,40,19.60
2017,07,24,10,41,19.60
2017,07,24,10,42,19.70
2017,07,24,10,43,19.70
2017,07,24,10,44,19.80
2017,07,24,10,45,19.90
2017,07,24,10,46,20.10
2017,07,24,10,47,20.30
2017,07,24,10,48,20.40
2017,07,24,10,49,20.50
2017,07,24,10,50,20.60
2017,07,24,10,51,20.70
2017,07,24,10,52,20.80
2017,07,24,10,53,20.90
2017,07,24,10,54,21.00
2017,07,24,10,55,21.10
2017,07,24,10,56,21.10
2017,07,24,10,57,21.10
2017,07,24,10,58,21.10
2017,07,24,10,59,21.10
2017,07,24,11,00,21.20
2017,07,24,11,01,21.20
2017,07,24,11,02,21.30
2017,07,24,11,03,21.30
2017,07,24,11,04,21.30
2017,07,24,11,05,21.30
2017,07,24,11,06,21.40
2017,07,24,11,07,21.40
2017,07,24,11,08,21.50
2017,07,24,11,09,21.50
2017,07,24,11,10,21.40
2017,07,24,11,11,21.40
2017,07,24,11,12,21.30
2017,07,24,11,13,21.30
2017,07,24,11,14,21.30
2017,07,24,11,15,21.40
2017,07,24,11,16,21.50
2017,07,24,11,17,21.60
2017,07,24,11,18,21.60
2017,07,24,11,19,21.60
2017,07,24,11,20,21.60
2017,07,24,11,21,21.60
2017,07,24,11,22,21.60
2017,07,24,11,23,21.60
2017,07,24,11,24,21.60
2017,07,24,11,25,21.70
2017,07,24,11,26,21.70
2017,07,24,11,27,21.80
2017,07,24,11,28,21.90
2017,07,24,11,29,22.00
2017,07,24,11,30,22.00
2017,07,24,11,31,21.90
2017,07,24,11,32,21.90
2017,07,24,11,33,21.90
2017,07,24,11,34,21.90
2017,07,24,11,35,21.90
2017,07,24,11,36,22.00
2017,07,24,11,37,22.00
2017,07,24,11,38,22.00
2017,07,24,11,39,22.00
2017,07,24,11,40,21.90
2017,07,24,11,41,21.90
2017,07,24,11,42,21.80
2017,07,24,11,43,21.90
2017,07,24,11,44,21.90
2017,07,24,11,45,22.00
2017,07,24,11,46,22.10
2017,07,24,11,47,22.20
2017,07,24,11,48,22.20
2017,07,24,11,49,22.10
2017,07,24,11,50,22.10
2017,07,24,11,51,21.90
2017,07,24,11,52,21.90
2017,07,24,11,53,21.80
2017,07,24,11,54,21.80
2017,07,24,11,55,21.70
2017,07,24,11,56,21.70
2017,07,24,11,57,21.70
2017,07,24,11,58,21.70
2017,07,24,11,59,21.70
2017,07,24,12,00,21.70
2017,07,24,12,01,21.70
2017,07,24,12,02,21.80
2017,07,24,12,03,21.90
2017,07,24,12,04,22.00
2017,07,24,12,05,22.00
2017,07,24,12,06,22.00
2017,07,24,12,07,22.00
2017,07,24,12,08,22.10
2017,07,24,12,09,22.20
2017,07,24,12,10,22.30
2017,07,24,12,11,22.40
2017,07,24,12,12,22.40
2017,07,24,12,13,22.50
2017,07,24,12,14,22.40
2017,07,24,12,15,22.40
2017,07,24,12,16,22.40
2017,07,24,12,17,22.40
2017,07,24,12,18,22.50
2017,07,24,12,19,22.50
2017,07,24,12,20,22.60
2017,07,24,12,21,22.60
2017,07,24,12,22,22.70
2017,07,24,12,23,22.80
2017,07,24,12,24,22.90
2017,07,24,12,25,23.00
2017,07,24,12,26,23.20
2017,07,24,12,27,23.30
2017,07,24,12,28,23.40
2017,07,24,12,29,23.50
2017,07,24,12,30,23.50
2017,07,24,12,31,23.50
2017,07,24,12,32,23.50
2017,07,24,12,33,23.60
2017,07,24,12,34,23.60
2017,07,24,12,35,23.70
2017,07,24,12,36,23.80
2017,07,24,12,37,23.80
2017,07,24,12,38,23.90
2017,07,24,12,39,23.90
2017,07,24,12,40,23.90
2017,07,24,12,41,23.70
2017,07,24,12,42,23.40
2017,07,24,12,43,23.10
2017,07,24,12,44,22.90
2017,07,24,12,45,22.70
2017,07,24,12,46,22.50
2017,07,24,12,47,22.30
2017,07,24,12,48,22.20
2017,07,24,12,49,22.20
2017,07,24,12,50,22.30
2017,07,24,12,51,22.30
2017,07,24,12,52,22.30
2017,07,24,12,53,22.20
2017,07,24,12,54,22.00
2017,07,24,12,55,21.90
2017,07,24,12,56,21.80
2017,07,24,12,57,21.90
2017,07,24,12,58,21.90
2017,07,24,12,59,21.80
2017,07,24,13,00,21.80
2017,07,24,13,01,21.80
2017,07,24,13,02,21.80
2017,07,24,13,03,21.80
2017,07,24,13,04,21.70
2017,07,24,13,05,21.80
2017,07,24,13,06,21.80
2017,07,24,13,07,21.90
2017,07,24,13,08,21.90
2017,07,24,13,09,21.90
2017,07,24,13,10,21.90
2017,07,24,13,11,21.90
2017,07,24,13,12,21.90
2017,07,24,13,13,22.00
2017,07,24,13,14,22.10
2017,07,24,13,15,22.10
2017,07,24,13,16,22.10
2017,07,24,13,17,22.10
2017,07,24,13,18,22.20
2017,07,24,13,19,22.30
2017,07,24,13,20,22.30
2017,07,24,13,21,22.20
2017,07,24,13,22,22.20
2017,07,24,13,23,22.30
2017,07,24,13,24,22.30
2017,07,24,13,25,22.50
2017,07,24,13,26,22.60
2017,07,24,13,27,22.70
2017,07,24,13,28,22.70
2017,07,24,13,29,22.70
2017,07,24,13,30,22.70
2017,07,24,13,31,22.60
2017,07,24,13,32,22.50
2017,07,24,13,33,22.50
2017,07,24,13,34,22.40
2017,07,24,13,35,22.40
2017,07,24,13,36,22.40
2017,07,24,13,37,22.40
2017,07,24,13,38,22.50
2017,07,24,13,39,22.50
2017,07,24,13,40,22.40
2017,07,24,13,41,22.40
2017,07,24,13,42,22.40
2017,07,24,13,43,22.30
2017,07,24,13,44,22.20
2017,07,24,13,45,22.20
2017,07,24,13,46,22.10
2017,07,24,13,47,22.00
2017,07,24,13,48,22.00
2017,07,24,13,49,21.90
2017,07,24,13,50,22.00
2017,07,24,13,51,22.00
2017,07,24,13,52,22.00
2017,07,24,13,53,22.00
2017,07,24,13,54,22.00
2017,07,24,13,55,22.10
2017,07,24,13,56,22.10
2017,07,24,13,57,22.10
2017,07,24,13,58,22.00
2017,07,24,13,59,22.00
2017,07,24,14,00,21.90
2017,07,24,14,01,21.90
2017,07,24,14,02,22.00
2017,07,24,14,03,22.00
2017,07,24,14,04,22.10
2017,07,24,14,05,22.10
2017,07,24,14,06,22.20
2017,07,24,14,07,22.20
2017,07,24,14,08,22.30
2017,07,24,14,09,22.40
2017,07,24,14,10,22.40
2017,07,24,14,11,22.50
2017,07,24,14,12,22.60
2017,07,24,14,13,22.60
2017,07,24,14,14,22.70
2017,07,24,14,15,22.80
2017,07,24,14,16,22.80
2017,07,24,14,17,22.90
2017,07,24,14,18,22.90
2017,07,24,14,19,22.90
2017,07,24,14,20,22.90
2017,07,24,14,21,22.90
2017,07,24,14,22,22.80
2017,07,24,14,23,22.80
2017,07,24,14,24,22.80
2017,07,24,14,25,22.80
2017,07,24,14,26,22.90
2017,07,24,14,27,22.80
2017,07,24,14,28,22.90
2017,07,24,14,29,22.90
2017,07,24,14,30,22.90
2017,07,24,14,31,22.90
2017,07,24,14,32,22.90
2017,07,24,14,33,22.90
2017,07,24,14,34,22.90
2017,07,24,14,35,23.00
2017,07,24,14,36,23.00
2017,07,24,14,37,23.00
2017,07,24,14,38,23.10
2017,07,24,14,39,23.20
2017,07,24,14,40,23.30
2017,07,24,14,41,23.40
2017,07,24,14,42,23.50
2017,07,24,14,43,23.60
2017,07,24,14,44,23.50
2017,07,24,14,45,23.40
2017,07,24,14,46,23.40
2017,07,24,14,47,23.40
2017,07,24,14,48,23.50
2017,07,24,14,49,23.60
2017,07,24,14,50,23.60
2017,07,24,14,51,23.60
2017,07,24,14,52,23.60
2017,07,24,14,53,23.60
2017,07,24,14,54,23.60
2017,07,24,14,55,23.50
2017,07,24,14,56,23.50
2017,07,24,14,57,23.60
2017,07,24,14,58,23.60
2017,07,24,14,59,23.60
2017,07,24,15,00,23.70
2017,07,24,15,01,23.70
2017,07,24,15,02,23.80
2017,07,24,15,03,23.90
2017,07,24,15,04,23.90
2017,07,24,15,05,24.00
2017,07,24,15,06,24.10
2017,07,24,15,07,24.10
2017,07,24,15,08,24.20
2017,07,24,15,09,24.20
2017,07,24,15,10,24.20
2017,07,24,15,11,24.00
2017,07,24,15,12,23.90
2017,07,24,15,13,23.80
2017,07,24,15,14,23.70
2017,07,24,15,15,23.60
2017,07,24,15,16,23.60
2017,07,24,15,17,23.60
2017,07,24,15,18,23.70
2017,07,24,15,19,23.70
2017,07,24,15,20,23.70
2017,07,24,15,21,23.70
2017,07,24,15,22,23.80
2017,07,24,15,23,23.80
2017,07,24,15,24,23.80
2017,07,24,15,25,23.90
2017,07,24,15,26,24.00
2017,07,24,15,27,24.10
2017,07,24,15,28,24.20
2017,07,24,15,29,24.30
2017,07,24,15,30,24.40
2017,07,24,15,31,24.50
2017,07,24,15,32,24.60
2017,07,24,15,33,24.70
2017,07,24,15,34,24.60
2017,07,24,15,35,24.60
2017,07,24,15,36,24.50
2017,07,24,15,37,24.40
2017,07,24,15,38,24.40
2017,07,24,15,39,24.30
2017,07,24,15,40,24.30
2017,07,24,15,41,24.30
2017,07,24,15,42,24.20
2017,07,24,15,43,24.20
2017,07,24,15,44,24.10
2017,07,24,15,45,24.10
2017,07,24,15,46,24.10
2017,07,24,15,47,24.10
2017,07,24,15,48,24.10
2017,07,24,15,49,24.20
2017,07,24,15,50,24.20
2017,07,24,15,51,24.20
2017,07,24,15,52,24.20
2017,07,24,15,53,24.20
2017,07,24,15,54,24.30
2017,07,24,15,55,24.30
2017,07,24,15,56,24.30
2017,07,24,15,57,24.30
2017,07,24,15,58,24.30
2017,07,24,15,59,24.40
2017,07,24,16,00,24.40
2017,07,24,16,01,24.40
2017,07,24,16,02,24.30
2017,07,24,16,03,24.30
2017,07,24,16,04,24.30
2017,07,24,16,05,24.30
2017,07,24,16,06,24.30
2017,07,24,16,07,24.30
2017,07,24,16,08,24.40
2017,07,24,16,09,24.40
2017,07,24,16,10,24.40
2017,07,24,16,11,24.50
2017,07,24,16,12,24.50
2017,07,24,16,13,24.40
2017,07,24,16,14,24.40
2017,07,24,16,15,24.40
2017,07,24,16,16,24.40
2017,07,24,16,17,24.40
2017,07,24,16,18,24.40
2017,07,24,16,19,24.50
2017,07,24,16,20,24.60
2017,07,24,16,21,24.60
2017,07,24,16,22,24.60
2017,07,24,16,23,24.60
2017,07,24,16,24,24.70
2017,07,24,16,25,24.80
2017,07,24,16,26,24.80
2017,07,24,16,27,24.80
2017,07,24,16,28,24.70
2017,07,24,16,29,24.70
2017,07,24,16,30,24.60
2017,07,24,16,31,24.60
2017,07,24,16,32,24.50
2017,07,24,16,33,24.30
2017,07,24,16,34,24.30
2017,07,24,16,35,24.20
2017,07,24,16,36,24.10
2017,07,24,16,37,24.10
2017,07,24,16,38,24.10
2017,07,24,16,39,24.10
2017,07,24,16,40,24.00
2017,07,24,16,41,24.00
2017,07,24,16,42,24.00
2017,07,24,16,43,24.00
2017,07,24,16,44,24.10
2017,07,24,16,45,24.10
2017,07,24,16,46,24.20
2017,07,24,16,47,24.20
2017,07,24,16,48,24.30
2017,07,24,16,49,24.30
2017,07,24,16,50,24.30
2017,07,24,16,51,24.30
2017,07,24,16,52,24.40
2017,07,24,16,53,24.40
2017,07,24,16,54,24.40
2017,07,24,16,55,24.40
2017,07,24,16,56,24.50
2017,07,24,16,57,24.60
2017,07,24,16,58,24.60
2017,07,24,16,59,24.70
2017,07,24,17,00,24.70
2017,07,24,17,01,24.80
2017,07,24,17,02,24.80
2017,07,24,17,03,24.90
2017,07,24,17,04,25.00
2017,07,24,17,05,25.00
2017,07,24,17,06,25.00
2017,07,24,17,07,25.00
2017,07,24,17,08,25.00
2017,07,24,17,09,25.00
2017,07,24,17,10,25.00
2017,07,24,17,11,24.90
2017,07,24,17,12,24.90
2017,07,24,17,13,24.90
2017,07,24,17,14,25.00
2017,07,24,17,15,25.00
2017,07,24,17,16,24.90
2017,07,24,17,17,24.90
2017,07,24,17,18,24.80
2017,07,24,17,19,24.80